Theta_e
335 340 348 347 349 349 349 348 348 348 349 348 347 344 343 344 342 342 338 338 338 338 338 338 338 336 336 337 336 336 336 336 336 334 335 335 336 337 335 334 334 330 335
340 343 345 347 348 347 348 347 347 347 348 348 345 344 342 341 340 338 337 341 338 338 337 337 336 335 335 334 334 335 335 335 336 336 333 333 334 334 333 333 332 329 333
341 342 342 345 346 345 347 348 347 347 347 346 344 344 342 340 340 338 339 339 337 337 336 336 336 335 333 334 333 334 335 337 336 334 331 323 326 333 333 331 331 332 332
340 340 340 343 345 345 346 347 347 346 347 345 345 344 341 339 338 337 336 336 336 336 335 336 335 334 333 332 333 333 334 333 333 330 323 323 326 333 333 332 332 332 331
338 338 340 343 345 345 345 346 346 346 346 345 343 341 341 339 338 337 337 335 336 335 334 334 333 331 331 332 332 333 335 332 330 326 323 323 323 331 334 333 331 331 331
337 338 340 344 345 345 344 345 345 345 345 344 341 340 339 337 336 335 336 335 335 334 334 333 332 330 330 331 331 331 333 332 328 322 322 327 327 334 334 333 333 332 332
335 337 340 343 344 345 345 345 345 346 345 343 339 338 337 335 335 335 335 334 334 334 333 333 331 330 329 329 330 330 331 330 321 321 322 325 330 334 334 334 334 334 333
333 337 339 336 339 342 343 344 343 344 343 341 338 337 336 334 334 334 334 334 334 333 332 332 331 330 328 328 328 329 329 327 321 319 320 323 333 335 336 336 336 336 336
333 334 335 336 335 335 337 338 341 342 341 340 339 338 337 336 335 334 335 334 333 332 331 331 330 329 328 328 328 328 327 326 317 319 324 324 334 334 335 335 336 335 334
332 332 332 333 335 334 333 331 334 337 337 337 335 333 331 332 332 332 330 333 332 331 329 329 328 328 327 327 327 326 325 324 318 319 322 325 333 334 334 334 333 332 331
332 329 330 330 332 332 330 327 329 331 331 330 329 327 325 326 327 328 327 330 331 330 329 328 326 326 326 325 326 325 324 320 319 319 322 330 332 333 334 331 329 328 326
330 328 329 327 329 331 332 327 327 328 327 326 325 325 326 324 324 326 324 327 329 328 329 327 327 327 323 320 320 322 320 320 321 321 322 330 332 333 330 327 326 325 324
326 331 330 329 328 327 328 326 326 326 326 325 325 325 321 320 319 320 319 320 319 320 319 322 321 321 320 320 321 320 321 320 318 321 325 328 328 327 325 325 324 323 324
325 328 330 330 327 326 327 323 323 324 325 324 325 324 320 318 317 317 316 316 317 318 319 320 320 321 321 321 321 321 321 322 318 317 319 319 323 323 323 322 322 323 320
322 326 328 330 326 325 324 323 321 320 323 324 325 324 323 321 320 320 320 321 321 321 321 320 320 321 321 321 321 321 321 320 317 317 314 315 319 318 320 321 323 320 318
324 325 327 329 331 324 323 322 321 320 321 322 322 322 323 321 320 321 321 321 321 321 321 322 321 319 319 322 321 324 321 318 317 315 312 312 316 316 319 319 318 317 317
324 326 326 327 329 325 322 322 321 321 321 320 321 323 323 323 320 321 321 321 323 322 322 322 321 319 317 319 320 320 321 318 315 314 309 306 309 314 314 314 313 314 314
324 325 326 329 327 328 323 321 320 320 320 320 322 323 323 323 322 320 321 321 325 323 322 320 319 317 317 317 318 317 319 315 311 308 306 303 304 305 308 308 308 310 311
324 325 325 326 325 327 325 321 321 320 320 321 323 323 323 323 323 321 321 322 325 321 319 319 316 317 317 317 315 314 316 311 309 302 299 300 302 303 300 303 304 305 307
325 325 325 326 325 325 325 321 320 319 319 321 322 323 323 324 323 321 320 322 322 319 318 317 316 319 318 317 314 316 313 310 303 297 297 299 299 297 295 294 293 298 302
324 323 325 324 325 325 324 320 319 319 319 319 321 324 324 324 323 321 320 320 318 318 318 318 318 319 318 316 311 312 307 301 296 295 296 297 297 295 293 292 293 292 293
323 323 323 324 324 325 326 325 321 319 320 322 323 325 325 324 323 321 320 319 319 317 317 317 318 317 317 315 309 307 304 302 299 294 294 296 295 294 292 292 292 291 290
320 319 319 323 324 325 325 324 320 320 320 320 322 324 325 325 323 322 321 320 320 320 318 318 318 317 314 313 312 307 298 298 299 295 291 293 294 293 290 291 291 291 290
322 322 318 319 322 323 325 323 323 321 319 322 323 326 325 324 323 323 323 323 322 322 320 320 322 320 317 312 309 307 303 299 294 292 291 290 292 292 289 290 289 289 289
323 324 324 318 318 321 322 323 322 321 322 323 324 324 325 325 324 323 323 322 322 321 322 319 318 319 318 313 308 302 299 296 296 292 288 287 291 291 289 288 288 288 289
322 324 323 323 318 319 319 321 321 320 321 322 322 323 324 324 324 323 322 322 322 321 320 320 320 318 315 312 307 301 298 295 292 289 287 286 287 289 289 288 288 287 288
Wind_Speed
3 5 9 10 12 12 13 15 14 14 16 17 18 19 19 19 19 17 18 18 19 19 19 18 18 18 19 19 17 18 18 18 19 20 19 20 20 21 20 21 18 13 19
10 6 10 11 13 12 12 13 12 14 15 16 17 18 19 18 18 18 18 17 19 19 19 18 17 17 16 15 15 16 16 12 17 19 17 17 19 19 20 19 19 15 19
11 8 9 12 12 12 11 11 12 13 15 15 17 18 20 18 17 17 18 17 18 19 18 19 18 17 16 16 15 17 19 21 15 15 15 6 10 19 19 18 18 17 17
11 8 7 11 11 10 11 10 14 14 14 14 18 19 19 17 16 16 17 17 19 19 18 18 17 16 16 14 15 16 17 19 19 17 8 8 8 18 18 17 16 16 15
10 9 8 11 12 12 12 13 14 14 13 15 18 17 17 18 16 16 15 16 17 17 18 17 16 16 14 14 15 16 15 19 17 12 7 6 5 14 16 15 13 12 12
11 10 8 10 12 12 12 12 13 12 15 17 17 17 15 16 16 15 14 15 17 16 16 16 16 15 13 13 13 14 15 19 13 7 6 6 7 14 15 14 11 10 10
9 8 6 9 10 11 13 11 12 14 17 18 17 14 14 16 15 14 13 15 15 15 14 14 14 13 12 11 13 14 14 13 7 6 6 6 5 12 12 10 9 8 7
11 8 6 6 8 10 11 13 14 15 18 18 16 14 14 14 14 13 13 14 14 13 13 13 12 12 10 9 9 10 11 11 8 6 6 5 11 12 14 13 13 16 17
11 10 5 5 7 8 11 12 14 15 16 18 15 14 13 13 13 12 11 12 12 11 11 11 11 9 8 8 9 9 9 9 6 4 5 4 10 13 14 14 17 19 20
9 10 7 6 6 5 5 9 12 15 15 15 14 13 12 12 11 10 8 9 10 9 8 8 7 6 5 5 6 7 7 8 6 5 4 4 10 12 13 16 18 18 18
7 7 10 6 6 6 6 5 8 12 13 13 12 12 9 5 6 6 7 8 9 8 7 5 4 3 3 5 7 7 6 3 5 4 3 6 10 12 17 17 16 16 17
7 7 8 10 7 6 5 5 5 5 4 6 6 7 4 5 5 5 6 8 7 6 5 4 3 1 1 2 2 4 3 5 5 4 3 8 12 16 17 16 16 17 17
6 8 6 9 12 8 5 3 3 3 2 3 6 5 5 5 4 3 3 2 3 4 2 0 0 1 2 2 3 3 3 5 3 4 6 11 16 17 15 15 16 16 19
5 7 7 7 11 9 6 4 3 4 4 3 4 6 5 3 4 4 3 4 3 3 3 3 2 1 1 2 2 3 3 5 4 3 7 13 14 14 15 15 14 19 19
7 7 7 6 7 9 7 5 5 4 3 5 5 6 5 4 5 4 4 3 3 3 2 2 1 0 0 1 1 2 4 7 7 4 5 11 14 14 14 14 18 19 17
10 8 7 7 6 7 7 6 5 5 4 3 4 5 6 5 5 4 4 4 3 2 3 3 3 1 1 2 0 4 5 6 7 6 5 7 14 14 15 17 17 17 17
13 11 9 8 6 7 8 6 5 6 6 5 4 4 5 5 5 5 4 4 4 3 4 2 0 0 1 0 4 4 5 7 7 7 7 4 6 13 16 17 17 17 17
14 14 11 8 7 6 8 6 5 5 4 5 5 5 6 6 6 5 4 4 4 4 3 1 1 0 2 3 2 3 5 7 9 8 5 4 4 4 11 15 16 17 18
17 15 14 11 10 8 8 6 6 7 5 5 5 6 7 6 6 5 4 4 5 4 3 3 2 2 1 2 2 3 4 6 7 7 7 7 6 5 4 14 16 16 16
16 16 15 13 11 8 5 5 4 4 5 4 5 4 7 5 7 5 4 5 5 4 3 2 3 3 2 3 3 4 4 5 6 5 7 6 6 6 5 6 5 7 15
14 15 16 15 15 9 6 5 6 7 6 4 5 8 9 8 7 7 5 5 5 5 6 5 4 5 3 3 4 4 4 4 5 5 4 5 6 5 5 5 5 4 5
15 16 15 17 15 14 9 6 4 4 4 6 4 7 8 9 9 7 6 5 5 3 5 5 4 2 2 3 3 3 3 1 2 2 4 5 6 5 5 5 6 6 5
13 16 16 17 16 15 15 6 3 3 2 4 5 6 8 11 9 8 8 7 7 5 5 5 6 7 3 1 3 5 2 4 4 1 1 4 5 4 4 4 5 5 5
15 14 15 15 16 15 15 12 16 12 12 10 10 7 8 10 10 10 10 9 9 6 6 7 6 4 4 5 2 1 2 5 4 2 1 1 3 6 5 4 4 4 4
16 14 14 15 16 16 16 15 12 13 10 8 8 9 10 8 10 10 10 10 9 7 8 7 5 6 4 4 4 3 1 1 2 4 4 3 1 1 4 4 4 3 4
14 13 11 13 15 15 16 17 16 16 12 8 9 9 8 8 8 10 10 10 10 9 9 8 8 7 5 3 3 5 5 5 4 4 3 2 4 3 3 3 4 3 3
Wind_Direction
122 139 120 109 94 101 105 105 96 93 96 96 93 90 87 84 84 76 81 79 76 74 74 76 75 76 78 78 79 75 69 75 77 69 63 65 65 61 61 55 41 48 50
133 133 109 111 103 101 97 100 103 101 101 101 96 89 90 89 86 85 83 78 79 77 77 78 78 79 78 79 74 66 57 75 82 79 62 59 66 62 58 54 55 53 51
123 119 113 111 113 107 100 103 113 108 99 103 103 102 92 89 89 92 81 84 79 77 77 79 80 78 78 74 62 52 51 68 83 70 63 40 54 60 58 55 54 50 50
129 123 115 109 112 106 95 99 113 108 100 101 95 92 98 97 85 84 87 83 83 79 77 80 78 75 72 69 55 43 48 78 70 62 51 39 51 62 60 54 52 50 46
124 113 111 111 108 99 96 98 102 105 105 99 89 86 87 88 87 86 80 88 82 80 79 80 77 73 71 64 50 44 65 76 70 63 52 48 36 60 58 57 53 48 43
114 112 116 115 115 115 111 109 115 110 107 91 91 92 96 93 90 89 89 91 85 82 82 81 78 74 72 63 51 47 64 86 78 63 44 34 63 58 57 51 49 44 40
110 109 116 121 125 117 110 102 123 115 100 103 100 101 102 95 94 92 96 91 90 84 82 83 80 75 67 57 47 44 49 90 83 67 39 15 5 55 50 37 32 27 24
125 112 110 109 141 118 108 104 118 117 115 109 110 110 106 101 97 96 94 99 91 86 84 83 82 76 70 61 54 42 35 60 89 74 38 7 2 38 39 33 32 47 54
128 117 110 94 105 103 106 108 115 117 116 116 115 110 102 94 94 91 94 99 100 97 92 90 84 82 73 54 37 26 18 49 78 72 60 3 355 31 34 38 50 52 48
131 135 130 124 103 96 98 106 116 117 115 114 115 117 117 113 109 104 92 104 108 102 96 92 91 85 69 59 46 9 17 68 95 76 56 12 18 40 48 54 51 47 46
136 152 142 146 130 120 117 115 111 124 127 130 131 137 127 117 112 109 109 108 114 114 112 112 112 87 19 349 348 358 31 89 99 75 35 28 46 54 60 52 48 50 48
155 169 166 148 146 147 140 142 127 126 141 145 146 138 121 129 131 129 133 137 136 142 155 158 123 33 303 331 323 10 31 67 91 79 40 40 51 61 54 51 53 55 54
171 172 181 167 152 149 149 161 156 147 161 165 153 159 143 131 135 142 147 164 163 179 215 227 9 100 97 94 49 41 51 84 92 79 60 48 59 57 62 63 63 64 61
168 176 170 188 156 154 152 159 192 170 174 180 176 150 141 131 156 161 171 197 191 200 207 174 167 152 112 125 113 73 59 91 94 79 67 62 67 66 63 65 72 64 57
181 184 181 188 149 160 153 169 170 215 189 171 168 165 149 169 176 171 196 186 192 167 175 141 139 214 337 232 155 137 91 98 113 104 85 68 70 69 71 75 67 64 58
181 180 182 194 176 162 156 171 180 171 190 192 189 188 175 171 169 167 165 180 182 167 146 146 156 180 279 248 66 181 108 107 120 105 95 77 77 70 74 70 69 63 58
183 175 180 188 190 173 165 167 175 184 170 174 195 209 184 182 178 170 171 184 191 165 151 148 123 72 341 48 93 86 128 103 110 112 106 88 74 68 77 73 67 63 56
169 180 177 185 189 187 168 173 173 184 177 178 174 186 201 190 177 175 180 193 173 156 159 156 153 320 265 65 90 56 116 108 105 104 108 113 91 74 79 78 68 65 57
173 178 184 182 188 194 180 175 177 181 185 190 180 184 192 192 188 176 190 204 166 151 165 168 187 177 131 71 46 102 98 117 113 110 103 102 107 90 85 80 75 67 59
176 179 182 188 190 189 170 175 187 180 186 188 189 184 183 192 189 186 188 180 159 156 184 190 184 218 143 145 82 103 101 99 105 107 113 103 99 96 95 80 67 68 63
181 174 183 181 198 188 183 180 191 196 199 196 198 186 189 192 192 190 189 186 187 179 198 192 190 201 147 145 102 80 44 67 97 108 113 109 105 101 93 85 92 75 55
188 187 183 187 188 200 198 194 180 167 193 201 202 210 193 188 195 192 190 201 203 205 195 196 197 190 105 154 130 96 158 133 48 72 122 127 133 123 105 97 96 97 83
189 194 189 188 188 192 198 182 140 141 165 187 204 208 200 194 193 187 193 190 200 189 212 199 194 187 162 157 173 148 135 213 134 172 24 132 144 123 122 111 100 108 108
203 196 195 189 189 193 189 192 200 202 201 209 209 202 197 190 194 194 199 204 203 200 199 216 209 182 149 169 136 182 122 150 176 164 263 221 147 142 139 112 105 104 115
198 199 194 191 192 192 191 195 199 209 211 201 201 197 201 203 203 200 203 203 209 205 217 201 192 194 183 165 154 157 138 102 121 134 177 196 54 159 147 140 137 130 126
197 197 190 191 197 192 193 199 202 210 208 198 195 201 204 206 209 210 208 205 211 214 210 211 202 187 183 174 180 167 162 167 196 157 142 148 163 204 165 151 144 159 154